Van Nuys, CA

11:01 PM PDT on June 21, 2018 (GMT -0700)
Van Nuys

Weather History for KVNY - June, 2018

Change the Weather History Date:

Thursday, June 14, 2018

  Actual Average Record
Temperature  
Mean Temperature 78 °F -  
Max Temperature 95 °F 79 °F 96 °F (1999)
Min Temperature 62 °F 57 °F 26 °F (2006)
Cooling Degree Days 12    
Growing Degree Days 28 (Base 50)    
Moisture  
Dew Point 51 °F    
Average Humidity 50    
Maximum Humidity 84    
Minimum Humidity 15    
Precipitation  
Precipitation 0.00 in - - ()
Sea Level Pressure  
Sea Level Pressure 29.78 in    
Wind  
Wind Speed 4 mph (SE)    
Max Wind Speed 10 mph    
Max Gust Speed -    
Visibility 10 miles    
Events      
Averages and records for this station are not official NWS values.
T = Trace of Precipitation, MM = Missing Value Source: NWS Daily Summary

Daily Weather History Graph

Daily Weather History Graph

Search for Another Location

Airport or City:

Astronomy

Jun. 14, 2018 Rise Set
Actual Time 5:41 AM PDT 8:07 PM PDT
Civil Twilight 5:12 AM PDT 8:36 PM PDT
Nautical Twilight 4:36 AM PDT 9:12 PM PDT
Astronomical Twilight 3:56 AM PDT 9:51 PM PDT
Moon 6:41 AM PDT (6/14) 9:14 PM PDT (6/14)
Length of Visible Light 15h 23m
Length of Day
14h 25m
New Moon, 1% of the Moon is Illuminated
Jun 14
New Moon
Jun 20
First Quarter
Jun 27
Full
Jul 6
Last Quarter
Jul 12
New

Hourly Weather History & Observations

Time (PDT) Temp. Heat Index Dew Point Humidity Pressure Visibility Wind Dir Wind Speed Gust Speed Precip Events Conditions
12:51 AM 68.0 °F - 52.0 °F 56% 29.79 in 10.0 mi East 3.5 mph - N/A   Clear
1:51 AM 66.0 °F - 55.9 °F 70% 29.79 in 10.0 mi East 4.6 mph - N/A   Clear
2:51 AM 64.0 °F - 57.0 °F 78% 29.78 in 10.0 mi ENE 3.5 mph - N/A   Clear
3:51 AM 63.0 °F - 57.0 °F 81% 29.78 in 10.0 mi ESE 3.5 mph - N/A   Clear
4:51 AM 64.0 °F - 57.0 °F 78% 29.77 in 9.0 mi Calm Calm - N/A   Clear
5:51 AM 62.1 °F - 57.0 °F 84% 29.78 in 9.0 mi ENE 3.5 mph - N/A   Clear
6:51 AM 63.0 °F - 57.9 °F 84% 29.79 in 7.0 mi Calm Calm - N/A   Clear
7:51 AM 66.0 °F - 57.9 °F 75% 29.80 in 7.0 mi Calm Calm - N/A   Clear
8:51 AM 73.0 °F - 55.9 °F 55% 29.81 in 10.0 mi Calm Calm - N/A   Clear
9:51 AM 75.9 °F - 57.9 °F 54% 29.82 in 10.0 mi ESE 8.1 mph - N/A   Clear
10:51 AM 77.0 °F - 57.0 °F 50% 29.84 in 8.0 mi SE 10.4 mph - N/A   Partly Cloudy
11:51 AM 82.0 °F 81.2 °F 53.1 °F 37% 29.84 in 10.0 mi SSE 10.4 mph - N/A   Clear
12:51 PM 84.9 °F - 48.0 °F 28% 29.83 in 10.0 mi SE 8.1 mph - N/A   Clear
1:51 PM 89.1 °F - 43.0 °F 20% 29.81 in 10.0 mi Variable 4.6 mph - N/A   Clear
2:51 PM 91.0 °F - 41.0 °F 17% 29.77 in 10.0 mi SE 5.8 mph - N/A   Clear
3:51 PM 93.0 °F - 39.0 °F 15% 29.73 in 10.0 mi Variable 3.5 mph - N/A   Clear
4:51 PM 93.9 °F - 41.0 °F 16% 29.70 in 10.0 mi South 10.4 mph - N/A   Clear
5:51 PM 90.0 °F - 37.0 °F 15% 29.69 in 10.0 mi South 10.4 mph - N/A   Clear
6:51 PM 81.0 °F - 46.9 °F 30% 29.71 in 10.0 mi SSE 9.2 mph - N/A   Clear
7:51 PM 75.0 °F - 51.1 °F 43% 29.74 in 10.0 mi ESE 9.2 mph - N/A   Clear
8:51 PM 70.0 °F - 53.1 °F 55% 29.77 in 10.0 mi ESE 6.9 mph - N/A   Clear
9:51 PM 70.0 °F - 51.1 °F 51% 29.78 in 10.0 mi Calm Calm - N/A   Clear
10:51 PM 68.0 °F - 53.1 °F 59% 29.79 in 10.0 mi SSE 3.5 mph - N/A   Clear
11:51 PM 68.0 °F - 53.1 °F 59% 29.78 in 10.0 mi ESE 4.6 mph - N/A   Clear